Home   Weather   Sion   Past weeks

Flag for Switzerland Past Weather in Sion, Valais, Switzerland — Yesterday and Last 2 Weeks

Now
53 °F

Cool.


Feels Like: 52 °F
Forecast: 30 / 47 °F
Wind: 3 mph from East

Location: Sion

Current Time: Feb 27, 2017 at 12:33:52 pm

Latest Report: Feb 27, 2017 at 11:00 am


Visibility: N/A

Pressure: 29.85 "Hg (28.06 "Hg at 514m altitude)

Humidity: 40%

Dew Point: 29 °F

Location of SionLocation

Past Weather in Sion — Graph

°F

Sion Temperature Yesterday

Maximum temperature yesterday: 57 °F (at 3:00 pm)
Minimum temperature yesterday: 31 °F (at 6:00 am)
Average temperature yesterday: 42 °F

High & Low Weather Summary for the Past Weeks

 TemperatureHumidityPressure
High69 °F (Feb 23, 3:00 pm)94% (Feb 17, 10:00 pm)30.68 "Hg (Feb 17, 10:00 pm)
Low29 °F (Feb 19, 7:00 am)12% (Feb 23, 3:00 pm)29.65 "Hg (Feb 23, 5:00 pm)
Average43 °F60%30.25 "Hg
* Reported Feb 12 11:00 am — Feb 27 11:00 am, Sion, Weather by CustomWeather, © 2017

Note: Actual official high and low records may vary slightly from our data, if they occured in-between our weather recording intervals... More about our weather records

Advertising

Sion Weather History for the Previous 24 Hours

Scroll right to see more
 ConditionsComfort  
Time TempWeatherWind HumidityBarometerVisibility
11:00 am
Mon, Feb 27
53 °FCool.3 mph40%29.85 "HgN/A
10:00 am48 °FCool.7 mph49%29.89 "HgN/A
9:00 am40 °FQuite cool.2 mph67%29.94 "HgN/A
8:00 am38 °FChilly.2 mph76%29.96 "HgN/A
7:00 am37 °FPassing clouds.1 mph75%29.97 "Hg12 mi
6:00 am39 °FChilly.1 mph68%29.97 "HgN/A
5:00 am38 °FChilly.2 mph71%29.99 "HgN/A
4:00 am40 °FOvercast.2 mph64%30.00 "Hg16 mi
3:00 am40 °FQuite cool.No wind64%30.02 "HgN/A
2:00 am40 °FChilly.3 mph66%30.04 "HgN/A
1:00 am39 °FOvercast.2 mph69%30.06 "Hg16 mi
12:00 am41 °FQuite cool.2 mph67%30.06 "HgN/A
11:00 pm
Sun, Feb 26
39 °FChilly.1 mph68%30.07 "HgN/A
10:00 pm43 °FQuite cool.1 mph59%30.06 "HgN/A
9:00 pm45 °FQuite cool.1 mph54%30.06 "HgN/A
8:00 pm47 °FCool.No wind48%30.04 "HgN/A
7:00 pm46 °FOvercast.1 mph50%30.05 "Hg16 mi
6:00 pm51 °FCool.6 mph41%30.02 "HgN/A
5:00 pm56 °FRefreshingly cool.3 mph29%29.99 "HgN/A
4:00 pm56 °FOvercast.1 mph24%29.98 "Hg16 mi
3:00 pm57 °FRefreshingly cool.2 mph25%30.00 "HgN/A
2:00 pm53 °FCool.1 mph28%30.06 "HgN/A
1:00 pm49 °FCool.6 mph32%30.10 "HgN/A
12:00 pm47 °FCool.5 mph37%30.14 "HgN/A
Weather by CustomWeather, © 2017

See weather overviewHow to use our weather pages